Preview of NWS' New Version of Forecast
This preview is not operational and should not be used for support decisions.

Regional Weather Roundup (RWR)

Issued by National Weather Service (NWS)

                            
000
ASUS43 KLSX 210507
RWRMO 

WEATHER SUMMARY FOR MISSOURI
NATIONAL WEATHER SERVICE SPRINGFIELD MO
1200 AM CDT THU MAR 21 2019

NOTE: "FAIR" INDICATES FEW OR NO CLOUDS BELOW 12,000 FEET WITH NO
       SIGNIFICANT WEATHER AND/OR OBSTRUCTIONS TO VISIBILITY.
       CURRENT SKY AND/OR WEATHER CONDITIONS ARE NOT AVAILABLE FOR
       CHILLICOTHE AND FARMINGTON.

MOZ001>031-035>038-043-044-053-054-210600-
...NORTHERN AND WESTERN MISSOURI...
  
CITY           SKY/WX    TMP DP  RH WIND       PRES   REMARKS
KANSAS CTY INT PTCLDY    46  37  71 N9        30.09R                  
KANSAS C DTWN  CLEAR     48  36  63 N10       30.08R                  
LEE'S SUMMIT   CLEAR     49  37  63 N13       30.08R                  
ST JOSEPH      PTCLDY    44  37  76 N9        30.12R                  
CHILLICOTHE      N/A     46  36  68 N7        30.08R                  
     
$$
MOZ066>068-077>081-088>096-101>105-210600-
...SOUTHWEST MISSOURI...
  
CITY           SKY/WX    TMP DP  RH WIND       PRES   REMARKS
SPRINGFIELD    CLEAR     40  32  73 SW8       30.07F                  
JOPLIN         CLEAR     47  32  56 SW9       30.09F                  
BRANSON        CLEAR     45  36  70 SW6       30.10S                  
               
$$
MOZ032>034-039>042-045>050-055>058-069>072-210600-
...CENTRAL MISSOURI...  
  
CITY           SKY/WX    TMP DP  RH WIND       PRES   REMARKS
COLUMBIA       CLOUDY    46  35  65 S6        30.01F                  
JEFFERSON CITY CLOUDY    50  37  61 CALM      30.02F                  
ROLLA          CLOUDY    43  36  76 SW8       30.03F                  
SEDALIA        CLEAR     47  32  56 W12G21    30.04R                  
WHITEMAN AFB   CLEAR     50  30  46 NW7       30.09R                  
WARRENSBURG    CLEAR     45  32  61 NW6       30.06R                  
OSAGE BEACH    CLOUDY    44  38  79 SW5       30.05F                  
               
$$
MOZ051-052-059>065-210600-
...EAST CENTRAL MISSOURI...
  
CITY           SKY/WX    TMP DP  RH WIND       PRES   REMARKS
ST LOUIS INTL  CLOUDY    48  36  63 W9        30.00F                  
SPIRIT OF STL  CLOUDY    48  38  68 SW7       30.00F                  
ST CHARLES     CLOUDY    43  37  79 W5        29.99F                  
                   
$$
MOZ072>076-082>087-097>100-106>115-210600-
...SOUTH CENTRAL AND SOUTHEAST MISSOURI...
  
CITY           SKY/WX    TMP DP  RH WIND       PRES   REMARKS
CAPE GIRARDEAU FAIR      43  41  93 W7        30.06S                  
FARMINGTON     CLEAR     42  37  82 W3        30.04F                  
POPLAR BLUFF   FAIR      42  42 100 SW6       30.08F                  
WEST PLAINS    CLEAR     41  36  82 W6        30.08F                  
                                       
$$